SCP
0 1 1 2 2 2 2 2 2 2 2 2 2 2 2 1 2 2 2 1 1 1 1 1 1 1 0 0 0 0 0 0 0 1 1 0 0 0 0 0 1 1 1
1 1 1 2 2 2 2 2 2 2 2 2 1 1 1 1 1 1 1 1 1 1 1 1 1 1 0 0 0 0 0 1 1 1 0 0 0 0 0 0 1 1 1
1 1 1 2 2 2 2 2 2 2 2 1 1 1 1 1 1 1 1 1 1 1 1 1 0 0 0 0 0 0 1 1 1 1 0 0 0 0 0 1 1 1 1
1 1 1 1 2 2 2 2 2 2 1 1 1 1 1 1 1 1 1 1 1 1 1 0 0 0 0 0 0 0 1 1 1 1 0 0 0 0 0 1 1 1 1
0 1 1 1 1 1 1 1 1 1 1 1 1 1 1 1 1 1 0 0 0 0 0 0 0 0 0 0 0 0 1 1 1 1 0 0 1 1 1 1 1 1 1
0 1 1 1 1 1 1 1 1 1 1 1 1 1 1 1 0 0 0 0 0 0 0 0 0 0 0 0 0 0 1 1 1 0 1 1 1 1 1 1 1 1 1
0 0 1 1 1 1 1 1 1 1 1 1 1 1 1 0 0 1 1 0 0 0 0 0 0 0 0 0 0 0 0 0 0 1 1 1 1 1 1 1 1 1 1
0 1 1 1 1 1 0 0 0 0 0 0 0 0 0 0 1 1 1 1 1 0 0 0 0 0 0 0 0 0 0 0 0 1 1 1 1 1 1 1 1 1 1
1 1 1 1 1 0 0 0 0 0 0 0 0 0 0 1 1 1 2 1 1 1 0 0 0 0 0 0 0 0 0 0 0 0 0 1 1 2 2 1 1 1 2
1 1 1 1 0 0 0 0 0 0 0 0 0 0 0 1 1 1 1 1 1 1 0 0 0 0 0 0 0 0 0 0 0 0 0 1 1 2 1 1 1 1 1
1 1 1 1 0 0 0 0 0 0 0 0 0 0 0 0 1 1 1 1 1 0 0 0 0 0 0 0 0 0 0 0 0 0 0 1 1 1 1 1 1 1 1
1 1 1 1 1 0 0 0 0 0 0 0 0 0 0 0 0 0 0 1 0 0 0 0 0 0 0 0 0 0 0 0 0 0 0 1 1 1 1 1 1 1 1
1 1 1 1 1 0 0 0 0 0 0 0 0 0 0 0 0 0 0 0 0 0 0 0 0 0 0 0 0 0 0 0 0 0 1 1 1 1 1 1 1 1 1
2 2 1 1 1 1 0 0 0 0 0 0 0 0 0 0 0 0 0 0 0 0 0 0 0 0 0 0 0 0 0 0 0 0 1 1 2 2 2 2 2 2 2
3 2 2 2 1 1 1 0 0 0 0 0 0 0 0 0 0 0 0 0 0 0 0 0 0 0 0 0 0 0 0 0 0 0 1 1 2 2 2 2 2 2 2
5 4 3 2 2 1 1 1 1 1 0 0 0 0 1 1 1 1 0 0 0 0 0 0 0 0 0 0 0 0 0 0 0 0 1 1 2 2 3 3 3 3 3
7 5 4 3 2 2 1 1 1 1 1 1 1 1 1 1 1 1 1 0 0 0 0 0 0 0 0 0 0 0 0 0 0 0 0 1 1 2 2 3 3 3 3
7 6 5 4 4 3 2 2 1 1 1 1 1 1 1 1 1 1 1 0 0 0 0 0 0 0 0 0 0 0 0 0 0 0 0 0 0 1 1 2 3 3 3
8 8 7 6 5 4 4 3 2 2 2 1 1 1 1 1 1 1 0 0 0 0 0 0 0 0 0 0 0 0 0 0 0 0 0 0 0 0 0 1 2 3 2
9 10 10 8 7 6 6 5 4 3 2 1 1 1 1 1 1 0 0 0 0 0 0 0 0 0 0 0 0 0 0 0 0 0 0 0 0 0 0 0 1 1 1
12 12 12 10 9 8 7 6 5 3 2 1 1 0 0 0 0 0 0 0 0 0 0 0 0 0 0 0 0 0 0 0 0 0 0 0 0 0 0 0 0 0 0
13 12 13 13 12 10 8 7 5 3 1 1 0 0 0 0 0 0 0 0 0 0 0 0 0 0 0 0 0 0 0 0 0 0 0 0 0 0 0 0 0 0 0
12 12 13 14 13 11 9 7 4 2 1 0 0 0 0 0 0 0 0 0 0 0 0 0 0 0 0 0 0 0 0 0 0 0 0 0 0 0 0 0 0 0 0
12 13 14 14 13 10 8 6 3 2 1 0 0 0 0 0 0 0 0 0 0 0 0 0 0 0 0 0 0 0 0 0 0 0 0 0 0 0 0 0 0 0 0
13 13 13 12 10 8 6 4 2 1 0 0 0 0 0 0 0 0 0 0 0 0 0 0 0 0 0 0 0 0 0 0 0 0 0 0 0 0 0 0 0 0 0
13 13 12 11 9 5 3 2 1 0 0 0 0 0 0 0 0 0 0 0 0 0 0 0 0 0 0 0 0 0 0 0 0 0 0 0 0 0 0 0 0 0 0
Wind_Speed
6 6 12 15 15 15 14 14 14 15 16 16 16 16 16 15 14 14 14 14 14 14 14 13 12 11 10 8 7 7 7 7 7 7 7 7 7 7 7 10 11 8 12
11 8 13 15 16 15 15 14 14 15 15 15 15 14 14 14 13 13 13 13 12 13 12 11 10 9 8 6 5 5 5 5 5 4 4 6 6 6 5 7 10 6 11
13 9 12 15 15 15 15 14 14 15 15 14 14 13 13 12 11 11 11 11 11 11 11 10 9 7 6 4 3 3 4 5 4 2 1 1 3 5 5 7 10 10 10
13 9 11 15 15 15 15 15 15 15 15 14 13 13 12 11 10 10 9 9 9 9 9 9 7 6 4 2 1 3 4 5 5 4 1 3 3 6 6 7 8 8 9
12 9 12 16 15 15 15 16 15 15 15 14 13 13 12 11 10 9 9 9 8 8 8 8 6 4 2 0 2 3 4 5 6 5 1 3 3 6 7 7 7 7 7
12 10 12 17 16 15 15 16 16 15 15 14 14 12 11 10 9 9 9 9 8 8 7 7 6 4 2 2 3 4 5 7 5 2 3 4 3 6 7 7 7 7 6
11 8 11 15 16 15 15 15 15 15 13 13 12 11 10 9 9 8 9 9 8 7 7 7 6 5 4 4 4 4 5 7 4 2 4 4 4 8 8 8 7 7 6
14 10 10 16 17 16 16 14 14 13 12 11 11 10 9 8 8 9 9 8 8 8 8 7 7 6 6 5 5 5 5 5 4 3 4 4 7 9 9 9 8 7 7
13 11 8 9 12 15 15 14 13 12 11 11 10 10 9 9 8 9 8 8 8 8 8 7 7 7 6 5 5 5 5 3 2 2 5 4 8 10 11 10 9 8 7
11 10 9 7 7 7 9 14 14 13 12 11 10 9 9 9 9 10 8 9 9 9 8 8 7 6 6 6 6 6 5 2 2 4 3 4 9 11 11 11 10 9 8
10 8 8 8 7 7 7 10 11 12 10 10 9 10 8 4 5 6 8 9 10 9 9 8 6 6 6 6 8 8 4 1 3 3 3 7 11 12 11 11 10 10 10
13 11 9 9 9 8 8 6 5 5 5 5 4 5 4 4 4 5 7 10 10 10 8 7 6 6 6 3 5 6 1 2 3 4 5 11 12 12 12 11 10 11 11
15 14 11 10 10 9 6 6 4 3 3 4 5 5 4 3 3 3 2 4 5 5 3 2 3 2 3 3 3 3 2 1 1 3 5 12 13 13 13 12 11 11 10
15 15 14 12 11 9 7 6 5 4 4 4 5 6 4 3 3 3 2 3 3 2 2 2 2 3 3 3 3 1 2 2 2 2 4 11 11 12 12 12 11 11 10
16 16 16 15 13 11 8 7 7 6 6 6 5 6 6 4 4 4 3 3 3 2 2 2 2 1 1 1 1 3 4 3 2 2 2 8 9 10 11 12 12 11 11
17 16 15 15 14 12 10 8 8 7 7 6 6 7 7 5 5 5 4 3 2 3 3 2 2 3 3 2 4 4 4 3 2 1 1 3 7 9 10 11 12 12 12
16 15 15 15 13 12 11 10 8 7 7 6 5 6 7 6 7 6 4 3 3 3 4 4 4 3 3 3 4 4 3 3 3 2 1 2 4 8 11 11 11 10 11
13 14 15 15 13 11 9 8 6 6 6 5 4 5 6 6 7 5 4 3 3 3 3 4 3 3 4 4 3 3 4 3 4 3 2 2 2 3 6 8 9 8 8
15 16 14 13 13 10 8 6 6 5 5 4 5 5 6 7 7 6 5 4 4 4 4 4 4 3 3 4 3 3 4 4 4 5 5 5 4 4 3 6 7 5 6
14 14 13 13 12 10 9 8 6 6 5 4 5 6 7 7 8 7 5 6 5 5 4 4 5 4 3 3 4 4 4 4 3 4 5 5 5 6 6 6 6 8 11
13 13 12 13 11 11 9 9 8 6 5 5 5 7 8 8 8 8 6 6 5 5 4 4 3 5 5 4 4 4 4 4 3 3 3 4 5 6 5 5 4 4 4
13 11 10 11 10 10 8 6 5 6 5 5 5 6 7 8 8 8 7 6 5 5 6 6 4 3 3 4 3 2 4 5 4 3 3 4 5 5 6 7 6 5 4
12 11 9 10 11 9 10 8 9 6 5 4 5 5 6 8 9 8 7 6 6 5 5 5 5 4 3 3 4 3 2 2 4 4 3 4 5 4 4 4 5 5 6
10 9 9 9 9 9 10 11 11 7 6 4 4 4 5 7 8 7 7 7 6 5 5 4 4 3 3 2 2 2 2 2 1 4 5 3 4 4 4 5 5 5 5
10 9 9 10 10 10 9 10 9 8 6 6 6 7 6 5 6 7 6 6 5 4 4 4 3 3 2 2 1 1 1 1 1 2 4 6 5 4 4 4 4 4 5
9 9 10 11 9 10 11 10 11 12 11 10 7 6 4 3 4 5 6 5 4 3 3 2 2 3 1 1 1 1 1 1 2 2 4 5 5 6 6 5 5 5 5
Wind_Direction
151 163 140 131 133 133 131 126 121 116 113 112 110 108 107 106 106 109 112 115 117 118 118 116 114 111 107 103 100 96 92 90 91 100 111 112 109 104 103 118 124 121 123
150 156 142 134 136 136 134 130 125 121 118 116 114 112 112 111 112 114 117 119 121 122 122 122 120 117 115 113 105 91 79 76 76 82 114 127 127 118 108 118 127 132 131
142 147 140 135 136 137 135 131 128 126 124 122 119 118 117 116 116 117 119 122 124 125 126 126 125 125 126 123 104 67 55 48 40 21 207 163 144 136 122 122 132 136 135
143 144 140 135 136 137 135 132 131 130 129 127 125 125 124 123 123 122 121 123 126 129 132 134 134 134 136 127 61 28 30 25 13 358 298 191 173 145 134 131 138 143 143
143 142 143 137 137 138 138 137 136 136 135 134 133 133 132 131 130 130 126 125 125 129 135 142 144 145 148 158 340 354 6 9 11 14 24 132 142 146 138 139 143 147 148
144 144 144 141 141 141 142 142 141 141 141 141 140 140 138 136 135 133 131 129 130 133 140 147 151 157 177 244 295 321 347 360 12 21 107 118 137 147 140 141 145 146 148
143 145 147 145 145 145 146 145 145 145 144 143 143 142 139 138 138 136 135 136 138 138 140 146 156 174 199 229 262 299 343 1 36 91 128 140 153 146 136 129 130 141 152
146 147 150 152 151 150 150 149 147 145 146 146 147 146 146 145 142 139 140 142 143 145 149 157 172 193 214 237 266 304 348 18 55 115 144 159 159 148 140 129 123 129 140
147 149 151 155 154 153 152 151 151 151 152 154 154 154 152 151 147 147 149 150 152 157 165 176 193 212 230 254 282 307 331 360 107 168 173 173 170 160 153 146 140 137 139
147 152 154 150 147 148 153 158 159 161 162 161 160 157 158 160 159 160 159 162 166 174 184 196 211 230 252 272 284 290 298 320 206 213 189 189 181 171 165 160 156 155 154
152 160 159 156 154 152 156 165 165 168 170 167 165 164 161 165 166 167 171 175 181 190 199 209 223 247 268 279 284 284 286 199 216 200 186 193 185 179 174 170 168 169 170
164 171 169 166 164 164 170 158 163 170 171 167 164 166 166 177 189 186 192 189 194 202 211 222 234 258 274 285 295 305 286 232 211 188 189 191 189 186 183 182 181 182 183
171 172 173 172 171 173 168 161 169 168 167 174 177 178 181 183 192 186 171 195 208 213 224 267 269 256 268 288 311 322 316 307 180 172 187 190 194 195 193 194 195 197 197
174 177 175 175 175 179 169 171 172 173 176 185 189 187 182 180 180 171 173 192 204 197 208 254 254 247 255 272 277 294 74 85 121 149 194 197 203 204 203 205 208 209 211
180 180 179 179 180 180 172 178 176 182 185 192 192 191 184 178 181 178 182 196 214 198 199 232 242 218 169 137 97 89 84 87 113 159 205 210 215 217 215 216 221 223 223
185 183 181 183 184 179 178 183 180 185 185 186 185 181 173 168 167 165 166 177 190 173 162 149 127 109 95 87 65 59 70 74 84 153 234 241 239 238 235 232 233 237 238
184 183 181 183 183 183 183 187 183 183 178 177 173 163 153 149 148 146 146 153 157 137 124 109 94 80 68 47 34 22 27 26 36 30 305 280 282 273 262 251 244 243 247
175 174 178 181 177 177 176 176 172 168 164 158 146 137 133 131 129 122 116 106 95 89 92 89 71 65 49 34 13 0 7 6 7 359 359 339 310 295 290 280 262 250 250
169 167 171 168 167 163 150 137 137 137 137 130 121 114 109 104 102 98 89 76 74 68 59 65 53 58 43 18 357 7 5 356 354 6 12 9 2 354 349 352 354 339 300
165 165 165 162 161 145 130 118 111 101 100 97 101 105 102 99 98 93 83 71 69 68 55 56 59 47 43 14 1 356 341 347 11 31 27 22 20 22 21 24 20 18 18
162 163 165 161 157 146 140 136 130 121 106 89 85 92 94 95 90 84 82 67 63 68 61 56 59 47 28 15 24 352 340 359 30 45 31 29 19 14 17 22 19 13 359
167 165 159 158 156 152 145 134 121 117 102 86 83 75 79 86 85 85 81 73 67 72 59 50 53 57 24 26 51 33 353 343 344 4 9 26 13 8 12 16 17 12 359
166 165 158 155 151 141 130 117 110 96 84 79 80 76 74 82 81 82 80 76 70 75 77 68 65 77 52 23 50 91 73 308 314 321 352 17 8 10 0 356 10 6 3
157 144 139 140 133 129 130 135 138 133 125 115 108 95 85 85 90 89 85 83 82 86 87 79 81 87 90 48 25 50 126 184 256 313 321 336 350 351 338 340 338 331 334
135 133 129 125 123 121 120 126 120 114 114 117 108 103 93 86 95 99 94 90 93 94 96 89 88 83 98 114 84 25 16 18 149 193 292 314 321 312 302 300 302 305 308
116 116 116 114 113 118 121 123 126 128 131 129 125 123 110 98 93 95 93 91 101 102 100 97 90 77 86 127 191 200 200 242 259 233 254 278 289 293 299 296 292 288 289